EHI
0 0 0 0 0 0 0 0 0 0 0 0 0 0 0 0 0 0 0 0 0 0 0 0 0 0 0 0 0 0 0 0 0 0 0 0 0 0 0 0 0 0 0
0 0 0 0 0 0 0 0 0 0 0 0 0 0 0 0 0 0 0 0 0 0 0 0 0 0 0 0 0 0 0 0 0 0 0 0 0 0 0 0 0 0 0
0 0 0 0 0 0 0 0 0 0 0 0 0 0 0 0 0 0 0 0 0 0 0 0 0 0 0 0 0 0 0 0 0 0 0 0 0 0 0 0 0 0 0
0 0 0 0 0 0 0 0 0 0 0 0 0 0 0 0 0 0 0 0 0 0 0 0 0 0 0 0 0 0 0 0 0 0 0 0 0 0 0 0 0 0 0
0 0 0 0 0 0 0 0 0 0 0 0 0 0 0 0 0 0 0 0 0 0 0 0 0 0 0 0 0 0 0 0 0 0 0 0 0 0 0 0 0 0 0
0 0 0 0 0 0 0 0 0 0 0 0 0 0 0 0 0 0 0 0 0 0 0 0 0 0 0 0 0 0 0 0 0 0 0 0 0 0 0 0 0 0 0
0 0 0 0 0 0 0 0 0 0 0 0 0 0 0 0 0 0 0 0 0 0 0 0 0 0 0 0 0 0 0 0 0 0 0 0 0 0 0 0 0 0 0
0 0 0 0 0 0 0 0 0 0 0 0 0 0 0 0 0 0 0 0 0 0 0 0 0 0 0 0 0 0 0 0 0 0 0 0 0 0 0 0 0 0 0
0 0 0 0 0 0 0 0 0 0 0 0 0 0 0 0 0 0 0 0 0 0 0 0 0 0 0 0 0 0 0 0 0 0 0 0 0 0 0 0 0 0 0
0 0 0 0 0 0 0 0 0 0 0 0 0 0 0 0 0 0 0 0 0 0 0 0 0 0 0 0 0 0 0 0 0 0 0 0 0 0 0 0 0 0 0
0 0 0 0 0 0 0 0 0 0 0 0 0 0 0 0 0 0 0 0 0 0 0 0 0 0 0 0 0 0 0 0 0 0 0 0 0 0 0 0 0 0 0
0 0 0 0 0 0 0 0 0 0 0 0 0 0 0 0 0 0 0 0 0 0 0 0 0 0 0 0 0 0 0 0 0 0 0 0 0 0 0 0 0 0 0
0 0 0 0 0 0 0 0 0 0 0 0 0 0 0 0 0 0 0 0 0 0 0 0 0 0 0 0 0 0 0 0 0 0 0 0 0 0 0 0 0 0 0
0 0 0 0 0 0 0 0 0 0 0 0 0 0 0 0 0 0 0 0 0 0 0 0 0 0 0 0 0 0 0 0 0 0 0 0 0 0 0 0 0 0 0
0 0 0 0 0 0 0 0 0 0 0 0 0 0 0 0 0 0 0 0 0 0 0 0 0 0 0 0 0 0 0 0 0 0 0 0 0 0 0 0 0 0 0
0 0 0 0 0 0 0 0 0 0 0 0 0 0 0 0 0 0 0 0 0 0 0 0 0 0 0 0 0 0 0 0 0 0 0 0 0 0 0 0 0 0 0
0 0 0 0 0 0 0 0 0 0 0 0 0 0 0 0 0 0 0 0 0 0 0 0 0 0 0 0 0 0 0 0 0 0 0 0 0 0 0 0 0 0 0
0 0 0 0 0 0 0 0 0 0 0 0 0 0 0 0 0 0 0 0 0 0 0 0 0 0 0 0 0 0 0 0 0 0 0 0 0 0 0 0 0 0 0
0 0 0 0 0 0 0 0 0 0 0 0 0 0 0 0 0 0 0 0 0 0 0 0 0 0 0 0 0 0 0 0 0 0 0 0 0 0 0 0 0 0 0
0 0 0 0 0 0 0 0 0 0 0 0 0 0 0 0 0 0 0 0 0 0 0 0 0 0 0 0 0 0 0 0 0 0 0 0 0 0 0 0 0 0 0
0 0 0 0 0 0 0 0 0 0 0 0 0 0 0 0 0 0 0 0 0 0 0 0 0 0 0 0 0 0 0 0 0 0 0 0 0 0 0 0 0 0 0
0 0 0 0 0 0 0 0 0 0 0 0 0 0 0 0 0 0 0 0 0 0 0 0 0 0 0 0 0 0 0 0 0 0 0 0 0 0 0 0 0 0 0
0 0 0 0 0 0 0 0 0 0 0 0 0 0 0 0 0 0 0 0 0 0 0 0 0 0 0 0 0 0 0 0 0 0 0 0 0 0 0 0 0 0 0
0 0 0 0 0 0 0 0 0 0 0 0 0 0 0 0 0 0 0 0 0 0 0 0 0 0 0 0 0 0 0 0 0 0 0 0 0 0 0 0 0 0 0
0 0 0 0 0 0 0 0 0 0 0 0 0 0 0 0 0 0 0 0 0 0 0 0 0 0 0 0 0 0 0 0 0 0 0 0 0 0 0 0 0 0 0
0 0 0 0 0 0 0 0 0 0 0 0 0 0 0 0 0 0 0 0 0 0 0 0 0 0 0 0 0 0 0 0 0 0 0 0 0 0 0 0 0 0 0
Wind_Speed
13 8 6 5 4 4 4 3 2 3 3 4 5 6 7 8 8 8 9 8 8 8 8 8 9 9 7 6 7 8 9 9 10 9 6 6 7 7 5 5 6 7 6
12 6 1 2 3 3 3 3 3 3 4 4 5 6 6 7 7 8 8 8 8 8 8 8 9 7 10 9 8 9 9 9 10 11 7 5 6 6 6 7 6 6 7
9 6 3 2 2 2 3 3 4 4 4 4 4 5 5 5 5 5 4 3 2 2 3 3 5 6 9 8 9 8 7 7 7 7 6 4 4 5 7 7 8 6 7
8 7 5 5 3 3 3 4 4 2 2 3 3 4 4 4 4 4 4 5 5 6 6 7 8 7 6 5 3 3 3 5 5 5 5 4 3 4 6 6 7 7 7
6 6 5 5 4 3 4 3 3 2 2 2 3 4 5 5 6 6 7 7 7 7 7 8 8 11 13 9 6 5 4 1 0 1 2 3 4 4 5 5 8 8 9
4 5 5 5 5 5 4 4 2 1 2 3 4 6 7 6 9 10 7 6 6 6 5 5 5 8 10 11 12 10 8 5 3 2 2 4 5 5 5 6 7 8 7
4 5 5 5 5 5 4 4 3 2 3 4 5 5 7 9 11 10 8 5 5 4 4 4 4 4 5 5 5 5 4 5 6 5 5 5 6 6 7 8 8 9 9
5 6 6 6 6 5 4 4 3 2 2 3 4 4 5 7 9 8 5 4 4 4 4 5 6 6 6 8 7 6 6 4 5 6 5 6 6 7 8 9 11 11 11
7 7 8 8 7 5 4 3 3 2 1 2 3 4 4 5 8 5 2 2 2 3 4 5 6 6 7 9 8 7 7 6 4 6 8 9 11 12 10 8 8 8 9
8 8 8 8 7 6 5 4 3 2 1 1 2 3 4 5 7 6 3 2 3 3 3 3 4 7 9 10 8 6 7 7 7 7 7 7 7 7 7 7 6 7 8
7 7 7 7 7 6 5 4 4 3 2 2 3 3 4 4 4 4 5 2 3 3 3 2 3 8 10 10 8 6 7 10 8 8 7 6 5 4 5 5 5 6 7
7 6 7 7 6 5 5 4 4 4 3 3 4 4 3 2 2 3 5 4 5 4 4 3 4 9 10 9 7 8 9 9 6 6 6 6 6 5 6 7 8 8 9
7 7 7 7 6 6 5 4 4 3 3 3 3 3 3 3 2 3 5 4 5 5 4 5 7 9 9 5 5 8 7 5 5 5 6 6 6 7 8 7 8 9 11
8 7 7 7 6 6 4 4 4 4 4 4 5 4 4 4 4 3 4 4 4 4 3 3 5 6 5 6 6 5 4 4 5 6 6 6 7 7 7 7 8 8 9
8 7 7 7 6 6 5 4 6 5 5 7 5 5 6 5 6 10 8 3 2 2 2 4 5 4 4 4 4 4 4 5 5 5 6 6 7 7 7 7 7 8 9
8 8 7 6 6 6 6 5 4 6 9 9 8 8 8 9 12 12 9 3 1 2 3 4 5 5 5 5 5 5 5 5 5 6 6 7 7 8 8 8 8 8 9
9 8 7 7 7 7 7 7 7 6 6 6 8 10 10 12 12 10 4 3 2 2 4 4 4 5 5 5 5 5 6 6 6 7 7 7 7 8 8 9 9 8 9
9 9 9 7 7 7 7 7 7 8 8 6 7 9 11 11 11 10 5 3 3 3 4 4 5 5 5 5 5 6 6 6 6 7 7 7 8 8 9 9 9 10 10
9 8 9 8 7 7 7 7 7 7 7 8 7 7 9 10 11 9 7 5 5 5 5 5 5 5 6 6 6 6 7 7 7 8 8 8 8 8 9 10 10 15 14
8 12 11 8 7 6 6 6 6 7 7 7 7 7 8 9 7 6 6 6 6 6 6 6 6 6 6 6 7 7 7 8 8 8 8 8 8 8 10 12 12 12 12
8 8 11 8 6 7 6 7 7 7 8 8 8 9 13 10 8 8 8 7 7 7 7 7 7 7 7 7 7 8 9 8 8 8 8 9 9 9 10 11 13 13 13
7 7 7 7 7 7 8 7 7 8 9 10 9 10 14 10 8 8 8 8 7 7 7 8 7 7 7 7 7 8 9 9 9 9 9 10 10 11 12 12 13 13 13
8 8 7 7 7 9 8 8 8 9 9 10 10 9 9 8 9 9 9 9 9 8 8 7 8 7 7 7 7 8 9 10 10 10 11 11 12 12 13 14 16 16 15
8 8 8 7 7 7 8 9 9 10 10 9 9 9 9 9 9 10 9 9 8 8 7 7 7 9 11 10 8 9 9 11 12 11 15 15 16 15 14 13 14 16 15
8 8 8 7 7 8 8 9 9 9 9 9 9 9 9 9 9 9 8 8 8 7 8 7 6 7 10 12 11 11 16 21 22 18 16 15 15 14 13 15 13 13 11
8 9 8 8 8 9 9 10 10 10 10 9 9 8 9 8 8 8 7 6 6 6 6 5 6 8 10 10 13 17 22 24 24 23 13 10 11 11 12 11 12 8 6
Wind_Direction
308 275 239 226 209 184 148 118 74 46 18 345 326 309 297 291 284 276 269 269 265 263 258 259 259 256 252 244 238 238 239 242 252 257 255 265 274 281 297 308 312 308 304
340 331 297 181 165 139 107 88 61 35 14 349 323 308 301 292 284 276 272 268 265 265 268 268 267 266 259 255 247 242 240 239 246 255 250 250 266 286 300 306 309 307 306
344 343 351 19 67 89 85 61 44 26 356 339 321 312 308 302 293 286 277 273 277 299 318 308 303 284 268 258 251 247 241 234 235 246 250 249 269 287 303 301 303 306 307
344 350 358 9 16 42 59 49 37 13 357 354 345 349 355 15 32 44 59 67 63 54 46 39 25 11 354 330 296 279 245 223 215 226 238 245 262 293 301 308 310 309 306
349 355 354 355 360 25 53 50 35 24 19 20 28 31 30 54 65 67 68 63 58 52 45 41 34 25 22 24 33 30 18 13 296 241 250 272 277 301 310 317 306 309 302
359 359 357 357 3 18 28 22 14 28 58 58 50 44 34 43 77 74 75 75 66 56 44 34 29 25 15 20 31 33 27 21 356 320 284 276 288 301 304 301 303 300 298
12 9 4 0 1 5 8 10 13 40 62 59 51 48 41 37 61 71 60 67 72 62 38 18 8 7 359 3 3 355 4 16 357 322 292 290 300 303 304 297 290 288 286
21 15 7 360 357 0 6 12 13 30 61 60 51 42 46 39 40 59 53 42 47 42 23 3 346 338 349 346 335 321 311 309 332 309 309 307 308 312 306 297 293 288 284
19 13 5 358 355 358 7 12 6 355 26 49 43 30 22 26 19 19 9 355 356 5 0 357 341 329 349 338 323 315 309 306 303 303 310 305 301 296 296 292 287 287 288
11 6 4 359 356 0 5 5 356 342 351 10 23 15 1 360 5 357 354 331 326 329 330 346 5 351 350 345 331 320 312 322 323 316 308 301 295 291 288 284 292 289 291
359 2 6 3 357 359 354 355 345 339 328 321 321 327 334 346 348 354 5 344 343 330 331 341 8 356 352 350 337 325 332 327 318 313 310 311 314 313 313 313 308 294 284
359 6 7 6 1 354 349 351 348 333 310 301 301 303 319 318 337 348 352 0 345 322 323 334 358 354 346 341 331 338 335 320 308 310 310 315 322 325 324 316 302 288 275
3 8 8 5 5 357 349 351 345 333 323 315 313 317 326 323 306 319 320 319 323 316 324 344 341 341 331 318 327 329 316 307 313 306 306 313 319 316 311 306 301 293 284
8 9 8 6 5 3 354 351 343 335 334 331 330 330 326 319 312 308 301 258 254 279 297 315 314 316 305 304 308 302 305 315 310 302 307 308 307 305 304 310 310 312 302
4 6 2 2 353 350 351 350 335 331 328 326 328 321 315 311 316 312 315 302 292 342 320 299 303 313 312 312 306 305 307 301 292 299 301 301 301 303 305 308 304 303 295
354 355 354 351 345 343 337 331 331 324 326 325 322 316 310 304 307 310 320 346 39 36 303 294 300 302 304 308 309 309 306 300 302 301 295 293 296 299 300 300 296 291 288
348 344 341 341 341 339 334 329 325 323 316 315 320 320 315 310 310 315 337 58 35 347 287 288 288 291 293 295 296 297 298 301 302 292 288 289 291 291 292 293 293 288 283
341 337 333 330 333 331 329 326 322 323 323 323 324 322 321 316 312 310 313 298 278 271 273 273 274 277 280 283 285 289 292 293 288 285 284 284 284 286 286 286 288 287 286
340 337 335 333 335 331 328 325 323 323 321 318 318 321 326 318 305 297 295 287 291 286 276 271 272 277 281 282 283 285 287 287 287 287 282 280 281 281 281 283 285 286 284
342 344 346 343 340 338 335 332 331 327 322 317 317 321 321 311 304 299 288 285 282 279 276 274 274 275 278 278 278 281 283 284 283 277 276 276 277 278 278 280 281 282 281
344 345 349 345 345 340 334 335 332 327 321 316 314 314 315 312 308 302 295 288 282 278 277 277 277 276 273 273 276 278 280 280 280 279 277 275 276 277 278 278 279 278 278
344 342 342 341 340 335 338 335 328 323 320 320 321 319 319 313 307 304 303 302 296 289 284 281 277 274 274 275 279 281 281 281 280 279 276 275 276 278 278 277 277 279 280
342 340 337 337 336 333 336 334 331 329 328 326 322 320 320 317 313 310 304 297 291 286 282 276 273 273 273 274 274 274 276 278 281 283 281 280 279 277 277 277 280 283 280
337 333 330 329 328 328 331 331 331 332 329 326 322 318 315 312 307 303 299 293 288 282 277 273 270 271 275 277 275 272 272 275 277 275 271 267 269 272 275 280 281 279 279
334 330 323 318 316 316 318 318 319 319 319 316 312 313 312 310 308 307 305 300 295 285 280 276 271 272 276 278 279 279 280 282 280 274 268 267 271 275 279 279 277 279 279
328 323 315 308 304 304 305 306 306 307 306 305 305 306 307 308 308 309 312 310 305 295 285 276 273 277 282 284 286 289 290 289 288 289 289 284 282 280 281 279 280 281 282